SCP
0 0 0 0 0 0 0 0 0 0 0 0 0 0 0 0 0 0 0 0 0 0 0 0 0 0 0 0 0 0 0 0 0 0 0 0 0 0 0 0 0 0 0 0
0 0 0 0 0 0 0 0 0 0 0 0 0 0 0 0 0 0 0 0 0 0 0 0 0 0 0 0 0 0 0 0 0 0 0 0 0 0 0 0 0 0 0 0
0 0 -0 0 0 0 0 0 0 0 0 0 0 0 0 0 0 0 0 0 0 0 0 0 0 0 0 0 0 0 0 0 0 0 0 0 0 0 0 0 0 0 0 0
0 0 0 0 0 0 0 0 0 0 0 0 0 0 0 0 0 0 0 0 0 0 0 0 0 0 0 0 0 0 0 0 0 0 0 0 0 0 0 0 0 0 0 0
0 0 0 0 0 0 0 0 0 0 0 0 0 0 0 0 0 0 0 0 0 0 0 0 0 0 0 0 0 0 0 0 0 0 0 0 0 0 0 0 0 0 0 0
0 0 0 -0 0 0 0 0 0 0 0 0 0 0 0 0 0 0 0 0 0 0 0 0 0 0 0 0 0 0 0 0 0 0 0 0 0 0 0 0 0 0 0 0
0 0 -0 -0 0 0 0 0 0 0 0 0 0 0 0 0 0 -0 0 0 0 0 0 0 0 0 0 0 0 0 0 0 0 0 0 0 0 0 0 0 0 0 0 0
0 -0 0 0 0 -0 -0 0 0 0 0 0 0 0 0 0 0 0 0 0 0 0 0 0 0 0 0 0 0 0 0 0 0 0 0 0 0 0 0 0 0 0 0 0
-0 -0 0 0 0 0 0 -0 0 0 0 0 0 0 0 0 0 0 0 0 0 0 0 0 0 0 0 0 0 0 0 0 0 0 0 0 0 0 0 0 0 0 0 0
-0 -0 -0 -0 -0 0 0 0 -0 0 0 -0 0 0 0 0 0 0 0 0 0 0 0 0 0 0 0 0 0 0 0 0 0 0 0 0 0 0 0 0 0 0 0 0
-0 -0 -0 0 0 -0 -0 0 -0 0 0 -0 0 0 0 0 0 0 0 0 0 0 0 0 0 0 0 0 0 0 0 0 0 0 0 0 0 0 0 0 0 0 0 0
-0 0 -0 0 0 0 0 0 0 0 0 0 0 0 0 0 0 0 0 0 0 0 0 0 0 0 0 0 0 0 0 0 0 0 0 0 0 0 0 0 0 0 0 0
-0 0 -0 -0 0 -0 0 0 0 0 0 0 0 0 0 0 0 0 0 0 0 0 0 0 0 0 0 0 0 0 0 0 0 0 0 0 0 0 0 0 0 0 0 0
0 0 -0 -0 0 -0 0 0 0 0 0 0 0 0 0 0 0 0 0 0 0 0 0 0 0 0 0 0 0 0 0 0 0 0 0 0 0 0 0 0 0 0 0 0
0 0 0 -0 0 0 0 0 0 0 0 0 0 0 0 0 0 0 0 0 0 0 0 0 0 0 0 0 0 0 0 0 0 0 0 0 0 0 0 0 0 0 0 0
0 0 0 0 0 0 0 0 0 0 0 -0 0 0 0 0 0 0 0 0 0 0 0 0 0 0 0 0 0 0 0 0 0 0 0 0 0 0 0 0 0 0 0 0
0 0 0 0 0 0 0 0 0 0 -0 -0 0 -0 -0 0 0 0 0 0 0 0 0 0 0 0 0 0 0 0 0 0 0 0 0 0 0 0 0 0 0 0 0 0
0 0 0 0 0 0 0 0 0 0 -0 -0 -0 0 0 0 0 0 0 0 0 0 0 0 0 0 0 0 0 0 0 0 0 0 0 0 0 0 0 0 0 0 0 0
0 0 0 0 0 0 0 0 0 0 0 0 0 0 0 0 0 0 0 0 0 0 0 0 0 0 0 0 0 0 0 0 0 0 0 0 0 0 0 0 0 0 0 0
0 0 0 0 0 0 0 0 0 0 0 0 0 0 0 0 0 0 0 0 0 0 0 0 0 0 0 0 0 0 0 0 0 0 0 0 0 0 0 0 0 0 0 0
0 0 0 0 0 0 0 0 0 0 0 0 0 0 0 0 0 0 0 0 0 0 0 0 0 0 0 0 0 0 0 0 0 0 0 0 0 0 0 0 0 0 0 0
0 0 0 0 0 0 0 0 0 0 0 0 0 0 0 0 0 0 0 0 0 0 0 0 0 0 0 0 0 0 0 0 0 0 0 0 0 0 0 0 0 0 0 0
0 0 0 0 0 0 0 0 0 0 0 0 0 0 0 0 0 0 0 0 0 0 0 0 0 0 0 0 0 0 0 0 0 0 0 0 0 0 0 0 0 0 0 0
0 0 0 0 0 0 0 0 0 0 0 0 0 0 0 0 0 0 0 0 0 0 0 0 0 0 0 0 0 0 0 0 0 0 0 0 0 0 0 0 0 0 0 0
0 0 0 0 0 0 0 0 0 0 0 0 0 0 0 0 0 0 0 0 0 0 0 0 0 0 0 0 0 0 0 0 0 0 0 0 0 0 0 0 0 0 0 0
0 0 0 0 0 0 0 0 0 0 0 0 0 0 0 0 0 0 0 0 0 0 0 0 0 0 0 0 0 0 0 0 0 0 0 0 0 0 0 0 0 0 0 0
0 0 0 0 0 0 0 0 0 0 0 0 0 0 0 0 0 0 0 0 0 0 0 0 0 0 0 0 0 0 0 0 0 0 0 0 0 0 0 0 0 0 0 0
Wind_Speed_500mb
25 27 36 29 33 42 40 37 26 20 31 33 30 26 30 37 34 25 25 28 23 35 36 39 43 40 38 41 43 49 60 71 77 77 78 77 75 70 69 69 70 70 73 78
20 29 33 34 44 44 47 42 45 41 40 19 34 27 26 35 30 33 37 44 36 33 38 40 39 41 40 43 46 46 47 50 54 60 68 74 72 72 69 69 69 67 64 59
8 16 21 23 23 31 30 39 35 32 28 13 13 16 24 30 34 40 49 55 43 44 46 48 48 45 44 46 41 38 39 39 40 40 41 43 46 48 48 46 43 44 44 50
9 13 15 8 12 19 27 40 37 33 15 17 19 26 29 37 42 55 54 58 63 55 47 44 44 44 40 38 36 34 33 32 31 29 29 29 29 30 31 33 34 38 47 57
8 13 22 24 3 5 13 46 33 37 31 27 33 20 35 50 38 47 51 46 39 40 43 40 35 28 23 20 20 20 21 21 20 21 21 21 22 23 26 30 36 41 37 31
8 11 12 2 8 8 10 25 29 16 20 28 27 19 22 14 16 22 28 22 27 29 36 34 31 29 28 26 23 21 18 16 15 17 18 19 21 23 22 20 16 15 21 21
21 15 14 17 3 4 6 11 45 29 36 29 16 18 17 10 12 10 6 25 39 46 49 47 43 38 40 40 38 33 28 24 20 19 18 17 12 7 1 5 8 8 12 11
16 12 21 5 3 5 12 40 44 33 29 35 15 17 28 28 36 27 31 37 45 53 56 50 41 39 51 49 41 34 33 32 28 23 19 16 10 8 4 4 6 10 13 14
12 10 21 46 25 43 39 29 48 24 17 31 22 13 36 37 34 34 38 46 52 64 68 63 55 40 50 50 37 31 29 29 26 21 17 15 10 12 13 12 11 14 13 13
5 4 21 49 61 42 40 41 14 16 9 34 26 25 35 40 38 40 45 49 51 55 63 62 53 48 50 42 38 28 26 27 27 22 25 24 23 21 20 22 21 19 16 14
12 17 18 14 28 54 67 36 19 5 2 13 22 28 29 44 44 49 49 51 47 50 56 59 53 51 40 34 32 36 38 36 33 30 32 31 30 32 28 28 20 16 14 11
15 26 23 33 45 54 42 22 9 9 14 23 17 31 32 40 46 52 52 51 54 58 58 57 50 46 41 38 35 36 40 40 36 32 31 30 28 28 24 22 18 15 13 11
38 54 39 52 46 28 33 17 13 21 12 27 36 34 34 41 42 41 48 54 57 59 57 58 57 48 40 39 35 36 37 37 32 27 27 24 23 21 20 22 20 17 16 13
45 38 33 41 36 43 24 13 22 34 28 22 24 36 46 53 52 52 55 55 55 58 58 59 58 55 47 39 34 34 32 31 26 26 25 24 23 22 19 17 17 16 14 10
68 52 47 51 38 29 15 24 16 34 38 35 23 41 43 52 57 58 64 65 66 67 66 61 57 56 39 31 30 32 29 30 29 28 26 24 22 20 18 16 15 13 8 9
31 25 24 33 20 19 20 20 23 31 38 46 51 48 57 61 70 73 73 73 69 68 63 58 54 48 37 32 32 34 34 31 28 27 26 25 23 21 20 19 17 18 21 26
30 30 27 31 22 23 23 23 24 23 40 47 49 55 65 73 76 75 72 66 69 66 58 52 54 45 39 34 32 34 31 28 25 25 24 23 22 23 24 23 22 24 27 30
27 29 32 33 32 25 19 19 27 36 49 58 66 71 77 77 81 77 73 69 67 65 57 52 46 41 38 34 30 29 26 25 24 26 26 25 26 26 25 24 25 25 25 25
18 21 18 13 25 28 30 35 39 50 61 69 77 82 80 79 78 75 69 65 63 62 56 44 38 35 34 31 27 27 26 26 27 28 28 27 26 27 27 27 27 27 26 26
15 14 13 17 25 33 42 45 56 66 72 81 85 87 86 81 74 71 63 65 59 57 46 38 32 32 32 30 26 27 27 28 28 29 29 29 29 29 29 28 26 24 24 26
7 14 21 30 38 43 50 62 68 77 78 79 82 84 79 75 66 64 63 65 54 43 38 34 31 33 31 29 28 28 28 29 30 31 30 30 28 28 26 24 25 27 28 30
19 26 33 42 52 61 62 69 74 81 81 81 79 80 76 71 63 60 55 56 49 35 34 33 33 31 30 27 29 29 30 30 30 30 28 27 26 24 25 27 28 29 31 32
35 41 49 55 64 72 73 76 79 80 82 80 80 74 70 67 59 59 61 47 41 33 32 34 34 32 29 29 30 30 29 28 28 27 26 24 25 26 27 29 29 30 31 33
50 55 63 69 74 78 84 81 84 82 79 74 70 65 60 57 56 52 52 44 36 31 34 35 33 31 28 30 29 28 27 26 25 23 24 25 27 27 28 28 29 32 33 34
60 69 72 75 79 75 80 81 80 76 74 68 61 57 51 44 46 51 45 42 36 32 33 33 30 29 27 27 25 24 23 22 22 23 24 24 25 26 27 30 33 35 35 35
66 70 70 73 79 77 77 75 74 66 64 63 56 52 50 47 46 44 40 37 34 31 30 30 27 24 22 22 20 19 19 20 21 22 21 22 24 27 30 33 35 36 36 34
66 70 73 72 68 66 64 63 63 60 56 55 60 51 46 44 41 38 36 34 31 28 26 24 22 19 18 16 16 18 19 19 18 18 19 23 26 29 32 34 36 37 36 35
Wind_Direction_500mb
242 253 279 272 278 288 277 254 256 254 235 227 246 258 260 256 249 247 253 231 221 221 218 224 228 224 227 233 236 234 234 236 238 241 246 249 253 249 251 256 261 266 269 271
255 234 243 266 279 277 270 273 265 265 255 215 237 249 255 260 259 245 248 256 235 235 224 233 234 234 228 233 240 239 241 244 245 246 249 254 260 265 268 272 274 275 280 281
252 205 221 254 254 280 268 256 243 232 225 197 221 239 248 261 274 267 252 250 244 245 243 236 235 240 239 241 244 249 253 251 250 251 253 253 256 259 265 272 278 279 281 282
293 297 226 227 317 328 301 264 234 239 220 214 221 247 249 271 283 284 271 263 258 249 254 241 236 238 240 241 242 241 244 248 249 246 246 251 254 258 258 261 262 262 265 266
243 276 298 295 207 51 4 312 278 242 243 232 242 261 264 270 283 282 274 267 266 250 240 220 211 208 213 209 210 216 225 234 235 232 235 237 233 234 239 243 250 253 258 268
218 240 249 215 214 142 257 289 0 341 304 255 236 242 254 306 302 300 268 253 230 191 178 172 160 155 153 143 138 135 136 148 164 172 179 190 203 215 224 230 236 264 276 276
231 256 289 276 192 129 103 303 317 334 338 308 226 240 226 156 67 25 164 149 152 148 136 128 127 131 123 121 119 122 128 131 136 142 148 143 150 142 146 269 268 272 267 254
221 241 242 322 199 97 198 288 292 290 328 331 246 123 108 86 87 97 108 119 126 124 115 111 111 119 115 109 111 119 122 123 120 119 115 113 109 102 111 168 203 185 188 176
207 209 299 278 287 294 272 244 273 284 9 12 41 112 97 96 100 116 122 121 123 120 117 116 114 116 118 112 117 117 117 111 109 110 107 110 121 123 123 126 127 124 112 92
293 274 238 287 294 293 312 296 311 258 54 24 57 95 108 126 134 132 129 129 124 120 115 110 112 113 105 114 111 113 116 107 103 99 96 95 95 93 99 92 93 93 85 72
282 278 267 229 337 335 321 326 293 2 194 70 82 93 124 123 133 137 136 130 128 124 118 116 115 107 110 115 119 119 110 103 98 96 92 92 91 89 87 91 85 81 73 48
257 275 278 291 319 330 327 333 5 16 126 114 109 116 133 127 131 135 134 132 128 124 120 116 111 115 115 115 115 113 112 110 108 104 99 95 91 90 83 76 70 67 65 44
261 275 274 289 306 308 324 306 74 76 110 137 127 131 138 137 141 137 134 132 128 122 116 118 119 123 120 120 122 117 113 110 107 103 99 94 90 85 79 69 63 63 64 64
270 275 276 279 293 303 302 198 114 96 88 101 136 141 141 144 139 137 133 128 127 121 120 120 123 117 115 118 117 109 107 104 104 100 95 94 91 88 86 79 66 64 58 40
268 271 267 277 277 282 243 206 169 119 116 102 131 138 142 141 136 129 125 126 124 124 121 119 118 112 116 116 110 107 105 101 99 98 94 89 85 82 77 71 63 54 34 350
270 285 286 248 249 246 209 177 175 142 145 142 144 146 144 142 136 131 128 128 126 114 117 118 113 111 111 108 107 103 98 94 93 90 87 79 72 65 58 48 38 27 15 10
267 279 270 252 223 211 203 202 206 176 149 147 144 143 142 138 130 127 125 124 118 117 114 112 109 110 108 104 99 95 94 93 84 79 72 66 60 53 48 41 35 26 16 6
253 260 267 268 258 215 181 176 177 165 152 148 147 144 138 135 127 125 122 121 118 113 108 108 110 110 105 97 91 89 87 82 75 69 65 59 52 47 43 36 32 26 20 12
247 260 274 259 217 199 173 161 162 158 148 145 144 139 136 132 130 126 124 120 116 113 107 108 107 103 96 89 83 80 75 71 69 66 60 56 52 51 47 44 40 34 26 16
259 239 227 180 167 172 157 155 160 148 146 146 143 137 133 130 130 128 127 116 111 109 111 109 103 93 87 83 76 74 72 71 68 66 63 60 58 56 51 46 38 30 21 13
187 180 174 169 157 152 155 157 153 144 143 142 140 133 129 127 128 127 122 113 110 112 110 105 95 89 83 78 74 72 72 71 70 70 68 64 60 55 48 40 31 23 15 8
154 151 151 153 149 142 148 150 147 143 140 138 135 133 132 128 128 121 114 112 113 113 108 99 91 85 83 81 77 75 74 73 72 70 67 63 56 48 39 31 23 15 8 360
145 143 143 143 142 140 143 141 138 137 134 133 133 131 129 127 125 123 115 111 112 110 103 96 92 88 84 80 79 77 75 72 70 66 60 53 45 37 30 22 14 6 -0 359
136 138 134 134 134 135 129 132 136 135 134 134 128 128 127 127 118 113 110 110 107 106 99 94 92 88 83 79 77 74 71 66 61 56 50 43 35 28 19 11 5 2 1 360
133 131 131 134 130 125 131 133 131 130 128 123 124 123 125 123 117 114 112 109 104 100 98 96 91 85 80 76 72 67 63 58 52 46 39 33 24 15 9 6 4 1 357 354
131 130 131 131 132 135 134 135 130 130 128 126 125 123 121 117 113 112 109 105 103 100 96 92 88 82 75 69 64 58 53 48 42 35 28 20 12 8 6 3 359 355 351 349
131 133 131 129 132 134 136 133 131 131 132 130 124 122 119 117 114 110 106 104 100 97 92 87 80 72 63 57 51 45 40 35 29 22 15 10 7 5 2 359 356 353 350 348
Wind_Speed_850mb
25 27 36 29 33 42 40 37 26 20 31 33 30 26 30 37 34 25 25 28 23 35 36 39 43 40 38 41 43 49 60 71 77 77 78 77 75 70 69 69 70 70 73 78
20 29 33 34 44 44 47 42 45 41 40 19 34 27 26 35 30 33 37 44 36 33 38 40 39 41 40 43 46 46 47 50 54 60 68 74 72 72 69 69 69 67 64 59
8 16 21 23 23 31 30 39 35 32 28 13 13 16 24 30 34 40 49 55 43 44 46 48 48 45 44 46 41 38 39 39 40 40 41 43 46 48 48 46 43 44 44 50
9 13 15 8 12 19 27 40 37 33 15 17 19 26 29 37 42 55 54 58 63 55 47 44 44 44 40 38 36 34 33 32 31 29 29 29 29 30 31 33 34 38 47 57
8 13 22 24 3 5 13 46 33 37 31 27 33 20 35 50 38 47 51 46 39 40 43 40 35 28 23 20 20 20 21 21 20 21 21 21 22 23 26 30 36 41 37 31
8 11 12 2 8 8 10 25 29 16 20 28 27 19 22 14 16 22 28 22 27 29 36 34 31 29 28 26 23 21 18 16 15 17 18 19 21 23 22 20 16 15 21 21
21 15 14 17 3 4 6 11 45 29 36 29 16 18 17 10 12 10 6 25 39 46 49 47 43 38 40 40 38 33 28 24 20 19 18 17 12 7 1 5 8 8 12 11
16 12 21 5 3 5 12 40 44 33 29 35 15 17 28 28 36 27 31 37 45 53 56 50 41 39 51 49 41 34 33 32 28 23 19 16 10 8 4 4 6 10 13 14
12 10 21 46 25 43 39 29 48 24 17 31 22 13 36 37 34 34 38 46 52 64 68 63 55 40 50 50 37 31 29 29 26 21 17 15 10 12 13 12 11 14 13 13
5 4 21 49 61 42 40 41 14 16 9 34 26 25 35 40 38 40 45 49 51 55 63 62 53 48 50 42 38 28 26 27 27 22 25 24 23 21 20 22 21 19 16 14
12 17 18 14 28 54 67 36 19 5 2 13 22 28 29 44 44 49 49 51 47 50 56 59 53 51 40 34 32 36 38 36 33 30 32 31 30 32 28 28 20 16 14 11
15 26 23 33 45 54 42 22 9 9 14 23 17 31 32 40 46 52 52 51 54 58 58 57 50 46 41 38 35 36 40 40 36 32 31 30 28 28 24 22 18 15 13 11
38 54 39 52 46 28 33 17 13 21 12 27 36 34 34 41 42 41 48 54 57 59 57 58 57 48 40 39 35 36 37 37 32 27 27 24 23 21 20 22 20 17 16 13
45 38 33 41 36 43 24 13 22 34 28 22 24 36 46 53 52 52 55 55 55 58 58 59 58 55 47 39 34 34 32 31 26 26 25 24 23 22 19 17 17 16 14 10
68 52 47 51 38 29 15 24 16 34 38 35 23 41 43 52 57 58 64 65 66 67 66 61 57 56 39 31 30 32 29 30 29 28 26 24 22 20 18 16 15 13 8 9
31 25 24 33 20 19 20 20 23 31 38 46 51 48 57 61 70 73 73 73 69 68 63 58 54 48 37 32 32 34 34 31 28 27 26 25 23 21 20 19 17 18 21 26
30 30 27 31 22 23 23 23 24 23 40 47 49 55 65 73 76 75 72 66 69 66 58 52 54 45 39 34 32 34 31 28 25 25 24 23 22 23 24 23 22 24 27 30
27 29 32 33 32 25 19 19 27 36 49 58 66 71 77 77 81 77 73 69 67 65 57 52 46 41 38 34 30 29 26 25 24 26 26 25 26 26 25 24 25 25 25 25
18 21 18 13 25 28 30 35 39 50 61 69 77 82 80 79 78 75 69 65 63 62 56 44 38 35 34 31 27 27 26 26 27 28 28 27 26 27 27 27 27 27 26 26
15 14 13 17 25 33 42 45 56 66 72 81 85 87 86 81 74 71 63 65 59 57 46 38 32 32 32 30 26 27 27 28 28 29 29 29 29 29 29 28 26 24 24 26
7 14 21 30 38 43 50 62 68 77 78 79 82 84 79 75 66 64 63 65 54 43 38 34 31 33 31 29 28 28 28 29 30 31 30 30 28 28 26 24 25 27 28 30
19 26 33 42 52 61 62 69 74 81 81 81 79 80 76 71 63 60 55 56 49 35 34 33 33 31 30 27 29 29 30 30 30 30 28 27 26 24 25 27 28 29 31 32
35 41 49 55 64 72 73 76 79 80 82 80 80 74 70 67 59 59 61 47 41 33 32 34 34 32 29 29 30 30 29 28 28 27 26 24 25 26 27 29 29 30 31 33
50 55 63 69 74 78 84 81 84 82 79 74 70 65 60 57 56 52 52 44 36 31 34 35 33 31 28 30 29 28 27 26 25 23 24 25 27 27 28 28 29 32 33 34
60 69 72 75 79 75 80 81 80 76 74 68 61 57 51 44 46 51 45 42 36 32 33 33 30 29 27 27 25 24 23 22 22 23 24 24 25 26 27 30 33 35 35 35
66 70 70 73 79 77 77 75 74 66 64 63 56 52 50 47 46 44 40 37 34 31 30 30 27 24 22 22 20 19 19 20 21 22 21 22 24 27 30 33 35 36 36 34
66 70 73 72 68 66 64 63 63 60 56 55 60 51 46 44 41 38 36 34 31 28 26 24 22 19 18 16 16 18 19 19 18 18 19 23 26 29 32 34 36 37 36 35
Wind_Direction_850mb
242 253 279 272 278 288 277 254 256 254 235 227 246 258 260 256 249 247 253 231 221 221 218 224 228 224 227 233 236 234 234 236 238 241 246 249 253 249 251 256 261 266 269 271
255 234 243 266 279 277 270 273 265 265 255 215 237 249 255 260 259 245 248 256 235 235 224 233 234 234 228 233 240 239 241 244 245 246 249 254 260 265 268 272 274 275 280 281
252 205 221 254 254 280 268 256 243 232 225 197 221 239 248 261 274 267 252 250 244 245 243 236 235 240 239 241 244 249 253 251 250 251 253 253 256 259 265 272 278 279 281 282
293 297 226 227 317 328 301 264 234 239 220 214 221 247 249 271 283 284 271 263 258 249 254 241 236 238 240 241 242 241 244 248 249 246 246 251 254 258 258 261 262 262 265 266
243 276 298 295 207 51 4 312 278 242 243 232 242 261 264 270 283 282 274 267 266 250 240 220 211 208 213 209 210 216 225 234 235 232 235 237 233 234 239 243 250 253 258 268
218 240 249 215 214 142 257 289 0 341 304 255 236 242 254 306 302 300 268 253 230 191 178 172 160 155 153 143 138 135 136 148 164 172 179 190 203 215 224 230 236 264 276 276
231 256 289 276 192 129 103 303 317 334 338 308 226 240 226 156 67 25 164 149 152 148 136 128 127 131 123 121 119 122 128 131 136 142 148 143 150 142 146 269 268 272 267 254
221 241 242 322 199 97 198 288 292 290 328 331 246 123 108 86 87 97 108 119 126 124 115 111 111 119 115 109 111 119 122 123 120 119 115 113 109 102 111 168 203 185 188 176
207 209 299 278 287 294 272 244 273 284 9 12 41 112 97 96 100 116 122 121 123 120 117 116 114 116 118 112 117 117 117 111 109 110 107 110 121 123 123 126 127 124 112 92
293 274 238 287 294 293 312 296 311 258 54 24 57 95 108 126 134 132 129 129 124 120 115 110 112 113 105 114 111 113 116 107 103 99 96 95 95 93 99 92 93 93 85 72
282 278 267 229 337 335 321 326 293 2 194 70 82 93 124 123 133 137 136 130 128 124 118 116 115 107 110 115 119 119 110 103 98 96 92 92 91 89 87 91 85 81 73 48
257 275 278 291 319 330 327 333 5 16 126 114 109 116 133 127 131 135 134 132 128 124 120 116 111 115 115 115 115 113 112 110 108 104 99 95 91 90 83 76 70 67 65 44
261 275 274 289 306 308 324 306 74 76 110 137 127 131 138 137 141 137 134 132 128 122 116 118 119 123 120 120 122 117 113 110 107 103 99 94 90 85 79 69 63 63 64 64
270 275 276 279 293 303 302 198 114 96 88 101 136 141 141 144 139 137 133 128 127 121 120 120 123 117 115 118 117 109 107 104 104 100 95 94 91 88 86 79 66 64 58 40
268 271 267 277 277 282 243 206 169 119 116 102 131 138 142 141 136 129 125 126 124 124 121 119 118 112 116 116 110 107 105 101 99 98 94 89 85 82 77 71 63 54 34 350
270 285 286 248 249 246 209 177 175 142 145 142 144 146 144 142 136 131 128 128 126 114 117 118 113 111 111 108 107 103 98 94 93 90 87 79 72 65 58 48 38 27 15 10
267 279 270 252 223 211 203 202 206 176 149 147 144 143 142 138 130 127 125 124 118 117 114 112 109 110 108 104 99 95 94 93 84 79 72 66 60 53 48 41 35 26 16 6
253 260 267 268 258 215 181 176 177 165 152 148 147 144 138 135 127 125 122 121 118 113 108 108 110 110 105 97 91 89 87 82 75 69 65 59 52 47 43 36 32 26 20 12
247 260 274 259 217 199 173 161 162 158 148 145 144 139 136 132 130 126 124 120 116 113 107 108 107 103 96 89 83 80 75 71 69 66 60 56 52 51 47 44 40 34 26 16
259 239 227 180 167 172 157 155 160 148 146 146 143 137 133 130 130 128 127 116 111 109 111 109 103 93 87 83 76 74 72 71 68 66 63 60 58 56 51 46 38 30 21 13
187 180 174 169 157 152 155 157 153 144 143 142 140 133 129 127 128 127 122 113 110 112 110 105 95 89 83 78 74 72 72 71 70 70 68 64 60 55 48 40 31 23 15 8
154 151 151 153 149 142 148 150 147 143 140 138 135 133 132 128 128 121 114 112 113 113 108 99 91 85 83 81 77 75 74 73 72 70 67 63 56 48 39 31 23 15 8 360
145 143 143 143 142 140 143 141 138 137 134 133 133 131 129 127 125 123 115 111 112 110 103 96 92 88 84 80 79 77 75 72 70 66 60 53 45 37 30 22 14 6 -0 359
136 138 134 134 134 135 129 132 136 135 134 134 128 128 127 127 118 113 110 110 107 106 99 94 92 88 83 79 77 74 71 66 61 56 50 43 35 28 19 11 5 2 1 360
133 131 131 134 130 125 131 133 131 130 128 123 124 123 125 123 117 114 112 109 104 100 98 96 91 85 80 76 72 67 63 58 52 46 39 33 24 15 9 6 4 1 357 354
131 130 131 131 132 135 134 135 130 130 128 126 125 123 121 117 113 112 109 105 103 100 96 92 88 82 75 69 64 58 53 48 42 35 28 20 12 8 6 3 359 355 351 349
131 133 131 129 132 134 136 133 131 131 132 130 124 122 119 117 114 110 106 104 100 97 92 87 80 72 63 57 51 45 40 35 29 22 15 10 7 5 2 359 356 353 350 348